2023/08/08 00:00:00, 0.0,24.0
2023/08/08 00:10:00, 0.0,24.0
2023/08/08 00:20:00, 0.0,24.0
2023/08/08 00:30:00, 0.0,24.0
2023/08/08 00:40:00, 0.0,23.8
2023/08/08 00:50:00, 0.0,23.7
2023/08/08 01:00:00, 0.0,23.6
2023/08/08 01:10:00, 0.0,23.7
2023/08/08 01:20:00, 0.0,23.7
2023/08/08 01:30:00, 0.0,23.8
2023/08/08 01:40:00, 0.0,24.0
2023/08/08 01:50:00, 0.0,23.6
2023/08/08 02:00:00, 0.0,23.7
2023/08/08 02:10:00, 0.0,23.8
2023/08/08 02:20:00, 0.0,23.9
2023/08/08 02:30:00, 0.0,23.5
2023/08/08 02:40:00, 0.0,23.3
2023/08/08 02:50:00, 0.0,23.2
2023/08/08 03:00:00, 0.0,22.9
2023/08/08 03:10:00, 0.0,23.2
2023/08/08 03:20:00, 0.0,23.0
2023/08/08 03:30:00, 0.0,23.1
2023/08/08 03:40:00, 0.0,23.1
2023/08/08 03:50:00, 0.0,22.8
2023/08/08 04:00:00, 0.0,22.7
2023/08/08 04:10:00, 0.0,22.5
2023/08/08 04:20:00, 0.0,22.4
2023/08/08 04:30:00, 0.0,22.4
2023/08/08 04:40:00, 0.0,22.2
2023/08/08 04:50:00, 0.0,22.2
2023/08/08 05:00:00, 0.0,22.4
2023/08/08 05:10:00, 0.0,22.3
2023/08/08 05:20:00, 0.0,22.6
2023/08/08 05:30:00, 0.0,22.5
2023/08/08 05:40:00, 0.0,22.6
2023/08/08 05:50:00, 0.0,22.8
2023/08/08 06:00:00, 0.0,22.8
2023/08/08 06:10:00, 0.0,23.3
2023/08/08 06:20:00, 0.0,23.6
2023/08/08 06:30:00, 0.0,24.3
2023/08/08 06:40:00, 0.0,24.7
2023/08/08 06:50:00, 0.0,25.4
2023/08/08 07:00:00, 0.0,26.2
2023/08/08 07:10:00, 0.0,25.4
2023/08/08 07:20:00, 0.0,25.7
2023/08/08 07:30:00, 0.0,25.6
2023/08/08 07:40:00, 0.0,27.6
2023/08/08 07:50:00, 0.0,29.3
2023/08/08 08:00:00, 0.0,30.2
2023/08/08 08:10:00, 0.0,32.2
2023/08/08 08:20:00, 0.0,31.4
2023/08/08 08:30:00, 0.0,32.3
2023/08/08 08:40:00, 0.0,33.7
2023/08/08 08:50:00, 0.4,34.3
2023/08/08 09:00:00, 0.0,34.3
2023/08/08 09:10:00, 0.1,35.2
2023/08/08 09:20:00, 0.4,34.2
2023/08/08 09:30:00, 0.4,35.7
2023/08/08 09:40:00, 0.0,34.9
2023/08/08 09:50:00, 0.2,34.5
2023/08/08 10:00:00, 0.6,38.4
2023/08/08 10:10:00, 0.6,37.6
2023/08/08 10:20:00, 0.2,37.1
2023/08/08 10:30:00, 0.0,36.7
2023/08/08 10:40:00, 0.0,39.1
2023/08/08 10:50:00, 0.0,37.4
2023/08/08 11:00:00, 0.0,37.1
2023/08/08 11:10:00, 0.0,38.4
2023/08/08 11:20:00, 0.0,38.0
2023/08/08 11:30:00, 0.2,39.0
2023/08/08 11:40:00, 0.0,36.6
2023/08/08 11:50:00, 0.5,36.3
2023/08/08 12:00:00, 0.0,35.5
2023/08/08 12:10:00, 0.0,35.4
2023/08/08 12:20:00, 0.0,34.6
2023/08/08 12:30:00, 0.0,34.3
2023/08/08 12:40:00, 0.0,34.3
2023/08/08 12:50:00, 0.0,35.4
2023/08/08 13:00:00, 0.0,34.9
2023/08/08 13:10:00, 1.1,33.2
2023/08/08 13:20:00, 3.6,34.2
2023/08/08 13:30:00, 3.9,35.1
2023/08/08 13:40:00, 2.8,34.1
2023/08/08 13:50:00, 1.1,34.6
2023/08/08 14:00:00, 0.0,34.6
2023/08/08 14:10:00, 0.0,34.6
2023/08/08 14:20:00, 0.7,34.3
2023/08/08 14:30:00, 0.2,35.2
2023/08/08 14:40:00, 0.3,34.8
2023/08/08 14:50:00, 0.2,34.2
2023/08/08 15:00:00, 0.3,34.4
2023/08/08 15:10:00, 0.0,35.9
2023/08/08 15:20:00, 0.0,37.5
2023/08/08 15:30:00, 0.1,35.4
2023/08/08 15:40:00, 0.6,34.4
2023/08/08 15:50:00, 2.3,33.3
2023/08/08 16:00:00, 1.9,33.6
2023/08/08 16:10:00, 1.7,34.5
2023/08/08 16:20:00, 1.0,35.1
2023/08/08 16:30:00, 1.0,34.5
2023/08/08 16:40:00, 1.3,33.9
2023/08/08 16:50:00, 1.1,33.9
2023/08/08 17:00:00, 1.0,33.6
2023/08/08 17:10:00, 1.1,32.6
2023/08/08 17:20:00, 1.3,32.5
2023/08/08 17:30:00, 1.0,32.5
2023/08/08 17:40:00, 0.9,32.0
2023/08/08 17:50:00, 1.1,31.2
2023/08/08 18:00:00, 1.1,31.1
2023/08/08 18:10:00, 1.2,31.0
2023/08/08 18:20:00, 1.5,30.5
2023/08/08 18:30:00, 2.2,30.2
2023/08/08 18:40:00, 3.7,30.3
2023/08/08 18:50:00, 4.5,30.0
2023/08/08 19:00:00, 4.4,29.5
2023/08/08 19:10:00, 3.8,29.0
2023/08/08 19:20:00, 3.2,28.8
2023/08/08 19:30:00, 2.8,28.9
2023/08/08 19:40:00, 4.1,28.4
2023/08/08 19:50:00, 4.1,28.7
2023/08/08 20:00:00, 4.6,28.7
2023/08/08 20:10:00, 4.7,28.2
2023/08/08 20:20:00, 5.9,28.1
2023/08/08 20:30:00, 9.3,28.1
2023/08/08 20:40:00, 8.1,27.7
2023/08/08 20:50:00, 8.4,27.6
2023/08/08 21:00:00, 9.5,27.3
2023/08/08 21:10:00, 7.3,27.1
2023/08/08 21:20:00, 6.0,26.9
2023/08/08 21:30:00, 6.2,26.8
2023/08/08 21:40:00, 6.3,26.7
2023/08/08 21:50:00, 7.0,27.0
2023/08/08 22:00:00, 7.7,26.9
2023/08/08 22:10:00, 7.9,26.7
2023/08/08 22:20:00, 7.8,26.5
2023/08/08 22:30:00, 7.8,26.3
2023/08/08 22:40:00, 8.2,25.6
2023/08/08 22:50:00, 8.7,25.7
2023/08/08 23:00:00, 9.2,25.4
2023/08/08 23:10:00, 9.1,25.1
2023/08/08 23:20:00, 8.7,25.4
2023/08/08 23:30:00, 9.3,25.8
2023/08/08 23:40:00, 8.4,25.5
2023/08/08 23:50:00, 8.2,25.1
